{"data":{"norad_id":66839,"epoch":"2026-09-20T13:05:06.575136Z","epoch_age_seconds":80109,"freshness":"FRESH","line1":"1 66839U 25280U   26263.54521499  .00001888  00000+0  16602-3 0  9999","line2":"2 66839  70.0020 203.1408 0002975 272.4706  87.6112 14.98330609 45267","mean_motion":14.98330609,"eccentricity":0.0002975,"inclination_deg":70.002,"raan_deg":203.1408,"arg_perigee_deg":272.4706,"mean_anomaly_deg":87.6112,"bstar":0.00016602,"rev_number":4526,"period_min":96.106960062777,"perigee_km":569.98632583801,"apogee_km":574.12168948757,"semimajor_km":6950.1910076628,"source":"CELESTRAK","updated_at":"2026-09-21T09:00:36.023257Z"}}